When you browse on this site, cookies collect data to enhance your experience and personalize the content and advertising you see.
Visit our Privacy Policy to learn more. By continuing to use the site, you agree to this use of cookies and data.
  • In Slovakia
  • List of Countries
  • For 7 days
  • Water Temperature
  • Satellite Maps
  • Weather Map
  • Weather Widgets
  • user-avatar
    Login

    Hourly Weather Ganevichi

    Today, 20 June, Thursday

    Time Temperature Precipitation Wind Pressure Humidity
    00:00 +18°C° 1.1 mm 3 mps 742 mmHg 93%
    01:00 +18°C° 1.1 mm 3 mps 742 mmHg 94%
    02:00 +18°C° 0 mm 3 mps 741 mmHg 94%
    03:00 +18°C° 0.1 mm 3 mps 741 mmHg 94%
    04:00 +18°C° 0.1 mm 2 mps 741 mmHg 94%
    05:00 +18°C° 0.1 mm 2 mps 741 mmHg 95%
    06:00 +19°C° 0 mm 3 mps 741 mmHg 92%
    07:00 +20°C° 0 mm 3 mps 741 mmHg 90%
    08:00 +21°C° 0 mm 3 mps 741 mmHg 88%
    09:00 +22°C° 0.9 mm 4 mps 741 mmHg 84%
    10:00 +25°C° 0.9 mm 4 mps 741 mmHg 80%
    11:00 +26°C° 0.9 mm 5 mps 740 mmHg 77%
    12:00 +26°C° 1.2 mm 5 mps 740 mmHg 76%
    13:00 +26°C° 1.2 mm 4 mps 740 mmHg 76%
    14:00 +27°C° 1.2 mm 4 mps 740 mmHg 76%
    15:00 +27°C° 0.3 mm 4 mps 740 mmHg 75%
    16:00 +27°C° 0.3 mm 4 mps 740 mmHg 74%
    17:00 +27°C° 0.3 mm 3 mps 740 mmHg 73%
    18:00 +26°C° 0.7 mm 3 mps 739 mmHg 78%
    19:00 +25°C° 0.7 mm 3 mps 739 mmHg 83%
    20:00 +22°C° 0.7 mm 3 mps 739 mmHg 88%
    21:00 +22°C° 0.1 mm 3 mps 739 mmHg 90%
    22:00 +21°C° 0.1 mm 3 mps 740 mmHg 92%
    23:00 +20°C° 0.1 mm 2 mps 740 mmHg 93%

    Tomorrow, 21 June, Friday

    Time Temperature Precipitation Wind Pressure Humidity
    00:00 +20°C° 0.1 mm 2 mps 740 mmHg 94%
    01:00 +20°C° 0.1 mm 2 mps 740 mmHg 94%
    02:00 +19°C° 0.1 mm 2 mps 740 mmHg 94%
    03:00 +19°C° 0.1 mm 2 mps 740 mmHg 95%
    04:00 +19°C° 0.1 mm 2 mps 740 mmHg 95%
    05:00 +19°C° 0.1 mm 2 mps 740 mmHg 95%
    06:00 +21°C° 0 mm 2 mps 740 mmHg 92%
    07:00 +23°C° 0 mm 2 mps 741 mmHg 90%
    08:00 +24°C° 0 mm 2 mps 741 mmHg 88%
    09:00 +25°C° 0.5 mm 2 mps 741 mmHg 82%
    10:00 +27°C° 0.5 mm 2 mps 741 mmHg 77%
    11:00 +28°C° 0.5 mm 2 mps 741 mmHg 72%
    12:00 +29°C° 0.4 mm 2 mps 741 mmHg 68%
    13:00 +29°C° 0.4 mm 2 mps 741 mmHg 65%
    14:00 +30°C° 0.4 mm 2 mps 741 mmHg 62%
    15:00 +30°C° 0.1 mm 2 mps 741 mmHg 64%
    16:00 +29°C° 0.1 mm 2 mps 741 mmHg 66%
    17:00 +29°C° 0.1 mm 2 mps 740 mmHg 68%
    18:00 +28°C° 0.5 mm 1 mps 740 mmHg 73%
    19:00 +26°C° 0.5 mm 1 mps 740 mmHg 78%
    20:00 +25°C° 0.5 mm 1 mps 740 mmHg 82%
    21:00 +24°C° 0.8 mm 1 mps 740 mmHg 84%
    22:00 +23°C° 0.8 mm 1 mps 741 mmHg 86%
    23:00 +22°C° 0.8 mm 1 mps 741 mmHg 88%

    Day after tomorrow, 22 June, Saturday

    Time Temperature Precipitation Wind Pressure Humidity
    00:00 +22°C° 0.3 mm 1 mps 741 mmHg 89%
    01:00 +22°C° 0.3 mm 1 mps 741 mmHg 89%
    02:00 +22°C° 0.3 mm 1 mps 741 mmHg 89%
    03:00 +21°C° 0.8 mm 1 mps 741 mmHg 91%
    04:00 +20°C° 0.8 mm 2 mps 741 mmHg 92%
    05:00 +20°C° 0.8 mm 2 mps 741 mmHg 94%
    06:00 +20°C° 0.1 mm 2 mps 741 mmHg 93%
    07:00 +21°C° 0.1 mm 3 mps 742 mmHg 92%
    08:00 +21°C° 0.1 mm 3 mps 742 mmHg 91%
    09:00 +22°C° 0.6 mm 3 mps 742 mmHg 88%
    10:00 +24°C° 0.6 mm 3 mps 742 mmHg 85%
    11:00 +25°C° 0.6 mm 3 mps 742 mmHg 82%
    12:00 +25°C° 0.8 mm 3 mps 743 mmHg 80%
    13:00 +26°C° 0.8 mm 3 mps 743 mmHg 78%
    14:00 +26°C° 0.8 mm 3 mps 743 mmHg 76%
    15:00 +25°C° 1.5 mm 3 mps 743 mmHg 80%
    16:00 +24°C° 1.5 mm 3 mps 742 mmHg 84%
    17:00 +24°C° 1.5 mm 2 mps 742 mmHg 88%
    18:00 +22°C° 0.2 mm 3 mps 743 mmHg 90%
    19:00 +21°C° 0.2 mm 3 mps 743 mmHg 91%
    20:00 +20°C° 0.2 mm 3 mps 743 mmHg 92%
    21:00 +20°C° 0.3 mm 3 mps 743 mmHg 93%
    22:00 +20°C° 0.3 mm 3 mps 743 mmHg 93%
    23:00 +20°C° 0.3 mm 3 mps 743 mmHg 93%

    23 June, Sunday

    Time Temperature Precipitation Wind Pressure Humidity
    00:00 +19°C° 0.2 mm 3 mps 743 mmHg 94%
    01:00 +19°C° 0.2 mm 4 mps 743 mmHg 94%
    02:00 +18°C° 0.2 mm 4 mps 743 mmHg 95%
    03:00 +18°C° 0.5 mm 4 mps 743 mmHg 95%
    04:00 +18°C° 0.5 mm 4 mps 743 mmHg 96%
    05:00 +18°C° 0.5 mm 4 mps 743 mmHg 96%
    06:00 +18°C° 0.5 mm 4 mps 743 mmHg 96%
    07:00 +18°C° 0.5 mm 4 mps 744 mmHg 96%
    08:00 +17°C° 0.5 mm 5 mps 744 mmHg 96%
    09:00 +17°C° 0.1 mm 5 mps 744 mmHg 95%
    10:00 +19°C° 0.1 mm 5 mps 744 mmHg 94%
    11:00 +19°C° 0.1 mm 5 mps 744 mmHg 93%
    12:00 +20°C° 0.1 mm 5 mps 744 mmHg 92%
    13:00 +20°C° 0.1 mm 5 mps 744 mmHg 90%
    14:00 +21°C° 0.1 mm 5 mps 744 mmHg 89%
    15:00 +21°C° 0.7 mm 5 mps 744 mmHg 90%
    16:00 +21°C° 0.7 mm 5 mps 744 mmHg 92%
    17:00 +20°C° 0.7 mm 4 mps 744 mmHg 94%
    18:00 +20°C° 0.5 mm 4 mps 744 mmHg 95%
    19:00 +20°C° 0.5 mm 5 mps 745 mmHg 95%
    20:00 +19°C° 0.5 mm 5 mps 745 mmHg 96%
    21:00 +19°C° 0.5 mm 5 mps 745 mmHg 96%
    22:00 +17°C° 0.5 mm 5 mps 745 mmHg 97%
    23:00 +18°C° 0.5 mm 4 mps 745 mmHg 97%

    24 June, Monday

    Time Temperature Precipitation Wind Pressure Humidity
    00:00 +18°C° 0.2 mm 4 mps 745 mmHg 97%
    01:00 +18°C° 0.2 mm 4 mps 745 mmHg 97%
    02:00 +18°C° 0.2 mm 3 mps 746 mmHg 98%
    03:00 +18°C° 0.8 mm 3 mps 746 mmHg 98%
    04:00 +18°C° 0.8 mm 4 mps 746 mmHg 98%
    05:00 +17°C° 0.8 mm 4 mps 746 mmHg 98%
    06:00 +17°C° 0.2 mm 4 mps 746 mmHg 97%
    07:00 +17°C° 0.2 mm 4 mps 746 mmHg 97%
    08:00 +17°C° 0.2 mm 4 mps 746 mmHg 97%
    09:00 +18°C° 0.2 mm 4 mps 747 mmHg 96%
    10:00 +18°C° 0.2 mm 4 mps 747 mmHg 95%
    11:00 +18°C° 0.2 mm 4 mps 747 mmHg 95%
    12:00 +18°C° 0.1 mm 4 mps 747 mmHg 94%
    13:00 +18°C° 0.1 mm 4 mps 747 mmHg 93%
    14:00 +19°C° 0.1 mm 5 mps 747 mmHg 92%
    15:00 +18°C° 0.1 mm 4 mps 747 mmHg 92%
    16:00 +18°C° 0.1 mm 4 mps 747 mmHg 93%
    17:00 +18°C° 0.1 mm 4 mps 747 mmHg 93%
    18:00 +18°C° 0 mm 4 mps 748 mmHg 92%
    19:00 +18°C° 0 mm 4 mps 748 mmHg 91%
    20:00 +17°C° 0 mm 4 mps 748 mmHg 91%
    21:00 +17°C° 0 mm 4 mps 748 mmHg 91%
    22:00 +16°C° 0 mm 3 mps 748 mmHg 92%
    23:00 +16°C° 0 mm 3 mps 748 mmHg 93%

    25 June, Tuesday

    Time Temperature Precipitation Wind Pressure Humidity
    00:00 +14°C° 0 mm 3 mps 748 mmHg 94%
    01:00 +14°C° 0 mm 3 mps 748 mmHg 95%
    02:00 +14°C° 0 mm 3 mps 748 mmHg 95%
    03:00 +13°C° 0 mm 3 mps 748 mmHg 95%
    04:00 +13°C° 0 mm 3 mps 748 mmHg 94%
    05:00 +13°C° 0 mm 3 mps 748 mmHg 93%
    06:00 +14°C° 0 mm 3 mps 748 mmHg 90%
    07:00 +17°C° 0 mm 3 mps 749 mmHg 87%
    08:00 +18°C° 0 mm 4 mps 749 mmHg 83%
    09:00 +20°C° 0 mm 4 mps 749 mmHg 79%
    10:00 +21°C° 0 mm 4 mps 749 mmHg 74%
    11:00 +22°C° 0 mm 4 mps 749 mmHg 70%
    12:00 +23°C° 0 mm 4 mps 749 mmHg 68%
    13:00 +25°C° 0 mm 4 mps 749 mmHg 66%
    14:00 +25°C° 0 mm 4 mps 749 mmHg 64%
    15:00 +25°C° 0 mm 4 mps 749 mmHg 66%
    16:00 +25°C° 0 mm 4 mps 749 mmHg 68%
    17:00 +25°C° 0 mm 4 mps 749 mmHg 69%
    18:00 +22°C° 0 mm 4 mps 749 mmHg 74%
    19:00 +21°C° 0 mm 4 mps 749 mmHg 78%
    20:00 +19°C° 0 mm 3 mps 749 mmHg 82%
    21:00 +18°C° 0 mm 3 mps 749 mmHg 81%
    22:00 +16°C° 0 mm 3 mps 749 mmHg 81%
    23:00 +14°C° 0 mm 3 mps 749 mmHg 80%
    Show more